TimeEDT,TemperatureF,Dew PointF,Humidity,Sea Level PressureIn,VisibilityMPH,Wind Direction,Wind SpeedMPH,Gust SpeedMPH,PrecipitationIn,Events,Conditions,WindDirDegrees,DateUTC
12:53 AM,53.1,42.1,66,30.19,10.0,NNW,3.5,-,N/A,,Clear,330,2013-09-06 04:53:00
1:53 AM,52.0,41.0,66,30.20,10.0,Calm,Calm,-,N/A,,Clear,0,2013-09-06 05:53:00
2:53 AM,51.1,39.9,66,30.20,10.0,Calm,Calm,-,N/A,,Clear,0,2013-09-06 06:53:00
3:53 AM,50.0,39.9,68,30.22,10.0,North,5.8,-,N/A,,Clear,350,2013-09-06 07:53:00
4:53 AM,48.0,39.9,74,30.23,10.0,Calm,Calm,-,N/A,,Clear,0,2013-09-06 08:53:00
5:53 AM,48.0,41.0,77,30.24,10.0,Calm,Calm,-,N/A,,Clear,0,2013-09-06 09:53:00
6:53 AM,48.0,41.0,77,30.27,10.0,North,3.5,-,N/A,,Clear,360,2013-09-06 10:53:00
7:53 AM,51.1,41.0,68,30.27,10.0,North,5.8,-,N/A,,Clear,350,2013-09-06 11:53:00
8:53 AM,55.9,41.0,57,30.27,10.0,NW,6.9,-,N/A,,Clear,320,2013-09-06 12:53:00
9:53 AM,60.1,42.1,51,30.27,10.0,Variable,3.5,-,N/A,,Clear,0,2013-09-06 13:53:00
10:53 AM,62.1,37.9,41,30.27,10.0,Calm,Calm,-,N/A,,Clear,0,2013-09-06 14:53:00
11:53 AM,64.0,34.0,33,30.25,10.0,NW,8.1,-,N/A,,Clear,320,2013-09-06 15:53:00
12:53 PM,66.0,36.0,33,30.23,10.0,West,6.9,-,N/A,,Clear,270,2013-09-06 16:53:00
1:53 PM,69.1,37.9,32,30.21,10.0,NW,9.2,-,N/A,,Clear,320,2013-09-06 17:53:00
2:53 PM,69.1,37.0,31,30.19,10.0,Variable,4.6,-,N/A,,Clear,0,2013-09-06 18:53:00
3:53 PM,69.1,37.0,31,30.16,10.0,Variable,5.8,-,N/A,,Clear,0,2013-09-06 19:53:00
4:53 PM,69.1,36.0,30,30.15,10.0,WSW,6.9,-,N/A,,Clear,250,2013-09-06 20:53:00
5:53 PM,69.1,37.0,31,30.15,10.0,West,6.9,-,N/A,,Clear,270,2013-09-06 21:53:00
6:53 PM,66.0,41.0,40,30.14,10.0,West,4.6,-,N/A,,Clear,260,2013-09-06 22:53:00
7:53 PM,62.1,45.0,53,30.14,10.0,South,3.5,-,N/A,,Clear,190,2013-09-06 23:53:00
8:53 PM,59.0,46.9,64,30.13,10.0,SW,3.5,-,N/A,,Clear,220,2013-09-07 00:53:00
9:53 PM,55.9,46.9,72,30.13,10.0,South,3.5,-,N/A,,Clear,180,2013-09-07 01:53:00
10:53 PM,55.0,46.9,74,30.12,10.0,Calm,Calm,-,N/A,,Clear,0,2013-09-07 02:53:00
11:53 PM,54.0,46.9,77,30.11,10.0,Calm,Calm,-,N/A,,Clear,0,2013-09-07 03:53:00